www.pogodaiklimat.ru

Погода и климат >> Архив погоды >> Аргентина >> Рио-Куарто


ПОГОДА в Рио-Куарто

  • Прогноз погоды в Рио-Куарто
  • Монитор погоды в Рио-Куарто

АРХИВ ПОГОДЫ в Рио-Куарто

Время (UTC), дата Ветер
(напр.,м/с)
 
Видим.   Явления Облачность Т
(С)
Тd
(С)
f
(%)
Тe
(С)
Тes
(С)
Комфортность P
(гПа)
Po
(гПа)
Тmin
(С)
Tmax
(С)
R
(мм)
R24
(мм)
S
(см)
00 16.09 Ю 12 15 км 9/4 900 м
[Sc Ac As]
+15.4 +10.0 70 +13 +13 1012.1 963.1 +14.5 +27.0
03 16.09 Ю 9 15 км 10/5 600 м
[Sc Ac As]
+12.5 +9.5 82 +9 +9 1017.1 968.4
06 16.09 Ю 7 15 км 10/5 540 м
[St Ac As]
+10.9 +10.1 95 +7 +7 1019.1 970.4
09 16.09 Ю 7 15 км 10/4 540 м
[St Ac As]
+10.2 +5.1 71 +7 +7 1021.0 971.8
12 16.09 Ю 7 15 км 9/0
[Ac As]
+10.9 -5.2 32 +8 +8 1025.0 975.0 +9.8 +15.4
15 16.09 Ю 9 15 км 3/0
[Ac As]
+13.9 -7.7 22 +12 +13 1025.3 975.4
18 16.09 Ю 7 15 км ясно +16.6 -7.3 19 +16 +19 1022.9 973.2
21 16.09 ЮЗ 3 15 км ясно +17.5 -4.6 22 +18 +19 1021.1 971.4
00 17.09 штиль 0 15 км ясно +11.8 -0.9 41 +12 +12 1022.5 972.4 +10.9 +18.3
03 17.09 штиль 0 15 км ясно +7.2 -0.6 58 +7 +7 1022.7 972.5
06 17.09 ЮЗ 3 15 км ясно +5.0 -1.0 65 +2 +2 1020.6 970.5
09 17.09 СЗ 3 15 км ясно +5.7 -2.6 55 +3 +3 1017.4 967.6
12 17.09 СЗ 4 15 км ясно +11.4 -1.6 40 +10 +11 1016.5 966.6 +5.0 +11.8
15 17.09 З 3 15 км ясно +22.0 -1.0 21 +21 +34 комфорт 1014.0 964.9
18 17.09 ЮЗ 3 15 км ясно +25.0 -2.4 16 +23 +34 комфорт 1010.2 961.3
21 17.09 Ю 3 15 км ясно +24.0 -3.1 16 +22 +24 комфорт 1008.8 960.0
00 18.09 ЮЗ 3 15 км ясно +17.5 -0.6 29 +18 +18 1010.7 961.7 +11.4 +26.0
03 18.09 штиль 0 15 км ясно +12.0 0.0 44 +12 +12 1011.5 962.9
06 18.09 штиль 0 15 км ясно +11.2 +0.1 46 +11 +11 1012.3 962.8
09 18.09 ЮЗ 3 15 км ясно +11.5 -0.7 43 +10 +10 1013.7 965.0
12 18.09 ЮЗ 3 15 км ясно +13.4 +1.5 44 +13 +15 1012.6 963.7 +10.0 +17.5
15 18.09 С 4 15 км 1/0
[Cs]
+20.9 +1.9 28 +21 +30 комфорт 1010.0 961.4
18 18.09 С 7 15 км ясно +25.8 -2.2 16 +24 +28 комфорт 1004.3 956.2
21 18.09 С 12 15 км ясно +26.7 -4.1 13 +24 +24 комфорт 1000.2 952.5
00 19.09 С 9 15 км ясно +19.8 -2.9 21 +19 +19 999.9 951.8 +13.4 +28.5
03 19.09 С 7 15 км ясно +17.6 +3.2 38 +17 +17 999.8 952.1
06 19.09 штиль 0 15 км ясно +13.9 +3.1 48 +14 +14 999.4 951.7
09 19.09 Ю 9 15 км ясно +11.8 -3.9 33 +9 +9 1008.5 960.4
12 19.09 Ю 12 12 км пыльный позёмок 9/0
[Ac As]
+10.4 -12.4 19 +6 +6 1013.8 964.8 +9.6 +19.8
15 19.09 Ю 9 15 км 9/1 1050 м
[Sc Ac As]
+11.1 -10.9 20 +8 +8 1016.1 966.8
18 19.09 Ю 9 15 км 6/1 1050 м
[Sc Ac As]
+14.1 -14.2 13 +12 +13 1014.9 965.6
21 19.09 Ю 9 15 км 4/0
[Ac As Cs]
+14.4 -14.0 13 +12 +12 1015.2 965.8
00 20.09 Ю 1 15 км 1/0
[Cs]
+8.6 -7.9 30 +9 +9 1018.8 968.6 +8.6 +15.2
03 20.09 З 3 15 км ясно +5.3 -4.6 49 +3 +3 1021.2 970.6
06 20.09 З 3 15 км ясно +3.9 -6.8 46 +1 +1 1020.9 970.5
09 20.09 З 3 15 км 4/0
[Ac trans]
+3.2 -5.1 54 0 0 1021.2 970.8
12 20.09 ЮЗ 4 15 км 6/0
[Ac trans Cs]
+11.1 -7.5 26 +9 +11 1023.3 972.9 +2.5 +11.1
15 20.09 ЮЗ 3 15 км 6/0
[Ac trans Cs]
+14.8 -7.6 21 +15 +24 1023.4 973.0
18 20.09 Ю 3 15 км 1/0
[Ac trans]
+19.7 -8.2 14 +20 +31 1019.9 970.0
21 20.09 СВ 3 15 км ясно +20.0 -11.1 11 +20 +21 1018.9 969.0
03 21.09 С 2 15 км ясно +10.2 -3.6 38 +9 +9 1020.6 970.8
06 21.09 З 3 15 км ясно +8.0 -5.4 38 +6 +6 1019.2 969.7
09 21.09 З 3 15 км ясно +7.8 -5.3 39 +6 +6 1019.0 969.4
12 21.09 штиль 0 15 км ясно +13.8 -3.4 30 +14 +18 1020.9 971.2 +5.5 +13.8
15 21.09 ЮВ 7 15 км ясно +21.6 -5.5 16 +20 +25 1020.7 971.4
18 21.09 В 4 15 км ясно +23.5 -7.1 12 +21 +30 комфорт 1019.0 969.8
21 21.09 В 7 15 км ясно +22.6 -7.0 13 +21 +21 комфорт 1018.9 969.6
00 22.09 штиль 0 15 км ясно +13.0 -3.3 32 +13 +13 1022.2 972.5 +13.0 +24.0
03 22.09 В 1 15 км ясно +11.7 -3.3 35 +12 +12 1024.1 974.8
06 22.09 С 3 15 км ясно +9.9 -3.3 39 +9 +9 1023.7 974.4
09 22.09 С 1 15 км ясно +8.6 -3.2 43 +8 +8 1024.6 975.0
12 22.09 С 4 15 км ясно +11.6 -0.6 43 +10 +12 1027.2 977.0 +7.7 +13.0
15 22.09 СВ 12 15 км ясно +20.8 -0.4 24 +20 +20 1026.2 976.6
18 22.09 С 12 8000 м пыльный позёмок ясно +23.7 -1.7 18 +22 +22 комфорт 1022.5 973.3
21 22.09 С 12 9000 м пыльный позёмок ясно +22.2 -1.8 20 +21 +21 комфорт 1020.9 971.6

 

Местоположение метеостанции Рио-Куарто (Аргентина): широта -33.09 долгота -64.27 высота над уровнем моря 421 м.

В архиве по умолчанию представлена погода в Рио-Куарто за последнюю неделю. Архивные данные за месяц целиком и за предыдущие месяцы, начиная с января 2011 года, Вы можете получить, выбрав интересующий диапазон дат из раскрывающегося списка и нажав кнопку "Ввод!".


*Определитесь, кто Вы:
робот инопланетянин человек

Внимание! Время в таблицах - всемирное. Для получения местного времени необходимо прибавить поправку, которая равна -3 ч.

Смотрите также архив погоды в соседних городах и на ближайших метеорологических станциях:

Погода в Вилья Рейнольдс (Аргентина) (125 км)
Погода в Лабоулайе (Аргентина) (143 км)
Погода в Вилла Долорес (Аргентина) (150 км)
Погода в Пиларе (Аргентина) (163 км)
Погода в Сан-Луисе (Аргентина) (195 км)
Погода в Кордове (Аргентина) (198 км)
Погода в Маркос Хуарес (Аргентина) (203 км)
Погода в Хенераль Пико (Аргентина) (294 км)
Погода в Росарио (Аргентина) (326 км)
Погода в Хунине (Аргентина) (350 км)

Пояснения к столбцам:

Ветер - указаны скорость ветра в м/с - средняя за 10 мин, порывы в срок и между сроками (в фигурных скобках) и направление, откуда дует ветер: С - северный, СВ - северо-восточный, В - восточный, ЮВ - юго-восточный, Ю - южный, ЮЗ - юго-западный, З - западный, СЗ - северо-западный.
Видимость - горизонтальная дальность видимости в метрах или километрах. При видимости от 1 до 10 км при отсутствии осадков обычно наблюдается дымка, при ухудшении видимости до 1 км и менее - туман. В сухую погоду видимость может ухудшаться дымом, пылью или мглою.
Явления - указаны атмосферные явления, наблюдавшиеся в срок или в последний час перед сроком; фигурными скобками обозначены явления, наблюдавшиеся между сроками (за 1-3 часа до срока); квадратными скобками обозначены град или гололедные отложения с указанием их диаметра в мм.
Облачность - указаны через наклонную черту общая и нижняя облачность в баллах и высота нижней границы облаков в метрах; квадратными скобками обозначены формы облаков: Ci - перистые, Cs - перисто-слоистые, Cc - перисто-кучевые, Ac - высококучевые, As - высокослоистые, Sc - слоисто-кучевые, Ns - слоисто-дождевые, Cu - кучевые, Cb - кучево-дождевые. Подробнее классификацию облаков см. в Атласе облаков (PDF).
T - Температура воздуха - температура, измеренная на высоте 2 м над землей.
Td - Температура точки росы - температура, при понижении до которой содержащийся в воздухе водяной пар достигнет насыщения.
f - Относительная влажность воздуха - влажноcть воздуха, измеренная на высоте 2 м над землей.
Te - Эффективная температура - температура, которую ощущает одетый по сезону человек в тени. Характеристика душности погоды. При расчете учитывается влияние влажности воздуха и скорости ветра на теплоощущения человека.
Tes - Эффективная температура на солнце - температура, которую ощущает человек, с поправкой на солнечный нагрев. Характеристика знойности погоды. Зависит от высоты солнца над горизонтом, облачности и скорости ветра. Ночью, в пасмурную погоду, а также при ветре 12 м/с и более поправка равна нулю.
P - Атмосферное давление - приведенное к уровню моря атмосферное давление.
Po - Атмосферное давление - измеренное на уровне метеостанции атмосферное давление.
Tmin - Минимальная температура - минимум температуры воздуха на высоте 2 м над землей.
Tmax - Максимальная температура - максимум температуры воздуха на высоте 2 м над землей.
R - Количество осадков - Количество выпавших осадков за период времени, мм. При наведении курсора мыши на число - период времени, за который выпало указанное количество осадков.
R24 - Количество осадков - Количество выпавших осадков за 24 часа, мм.
S - Снежный покров - Высота снежного покрова, см. При наведении курсора мыши на число - состояние снежного покрова и степень покрытия местности в баллах.